Tracking 19832 objects as of 25-Aug-2019
HD Live streaming from Space Station
objects crossing your sky now

COSMOS 2251 DEB

Track COSMOS 2251 DEB now!
10-day predictions


NORAD ID: 34682
Int'l Code: 1993-036YC
Perigee: 728.9 km
Apogee: 762.2 km
Inclination: 74.0 °
Period: 99.6 minutes
Semi major axis: 7116 km
RCS: 0.0176 m2 (small)
Launch date: June 16, 1993
Source: Commonwealth of Independent States (former USSR) (CIS)
Launch site: PLESETSK MISSILE AND SPACE COMPLEX (PKMTR)

Note: This is SATELLITE DEBRIS
aabbcc
Your satellite tracking list
Your tracking list is empty




NASA's NSSDC Master Catalog

Two Line Element Set (TLE):
1 34682U 93036YC  19236.92583396 +.00000275 +00000-0 +84266-4 0  9994
2 34682 074.0423 080.9350 0023398 063.5331 001.4392 14.46094439553327
Source of the keplerian elements: AFSPC